Auburn, CA

9:11 AM PST on November 21, 2019 (GMT -0800)
Auburn Municipal

Weather History for KAUN - September, 2019

Change the Weather History Date:

Wednesday, September 4, 2019

  Actual Average Record
Temperature  
Mean Temperature 84 °F -  
Max Temperature 95 °F 90 °F 108 °F (1950)
Min Temperature 73 °F 62 °F 48 °F (1965)
Cooling Degree Days 19    
Growing Degree Days 34 (Base 50)    
Moisture  
Dew Point 47 °F    
Average Humidity 27    
Maximum Humidity 41    
Minimum Humidity 16    
Precipitation  
Precipitation 0.00 in - - ()
Sea Level Pressure  
Sea Level Pressure 29.91 in    
Wind  
Wind Speed 1 mph ()    
Max Wind Speed 9 mph    
Max Gust Speed 12 mph    
Visibility 10.0 miles    
Events      
Averages and records for this station are not official NWS values.
T = Trace of Precipitation, MM = Missing Value Source: Averaged Metar Reports

Daily Weather History Graph

Daily Weather History Graph

Search for Another Location

Airport or City:

Astronomy

Sep. 04, 2019 Rise Set
Actual Time 6:35 AM PDT 7:30 PM PDT
Civil Twilight 6:08 AM PDT 7:57 PM PDT
Nautical Twilight 5:36 AM PDT 8:29 PM PDT
Astronomical Twilight 5:02 AM PDT 9:02 PM PDT
Moon 12:39 PM PDT (9/4) 11:11 PM PDT (9/4)
Length of Visible Light 13h 48m
Length of Day
12h 54m
Waxing Crescent, 36% of the Moon is Illuminated
Sep 4
Waxing Crescent
Sep 5
First Quarter
Sep 13
Full
Sep 21
Last Quarter
Sep 28
New

Hourly Weather History & Observations

Time (PDT) Temp. Heat Index Dew Point Humidity Pressure Visibility Wind Dir Wind Speed Gust Speed Precip Events Conditions
12:15 AM - - - N/A% 29.93 in 10.0 mi Calm Calm - N/A   Clear
12:35 AM - - - N/A% 29.93 in 10.0 mi Calm Calm - N/A   Clear
12:55 AM - - - N/A% 29.93 in 10.0 mi Calm Calm - N/A   Clear
1:15 AM - - - N/A% 29.93 in 10.0 mi Calm Calm - N/A   Clear
1:35 AM - - - N/A% 29.92 in 10.0 mi Calm Calm - N/A   Clear
1:55 AM - - - N/A% 29.92 in 10.0 mi East 8.1 mph - N/A   Clear
2:15 AM - - - N/A% 29.92 in 10.0 mi Calm Calm - N/A   Clear
2:35 AM - - - N/A% 29.91 in 10.0 mi Calm Calm - N/A   Clear
2:55 AM - - - N/A% 29.91 in 10.0 mi Calm Calm - N/A   Clear
3:15 AM - - - N/A% 29.91 in 10.0 mi East 4.6 mph - N/A   Clear
3:35 AM - - - N/A% 29.91 in 10.0 mi Calm Calm - N/A   Clear
3:55 AM - - - N/A% 29.91 in 10.0 mi Calm Calm - N/A   Clear
4:15 AM - - - N/A% 29.90 in 10.0 mi Calm Calm - N/A   Clear
4:35 AM - - - N/A% 29.90 in 10.0 mi Calm Calm - N/A   Clear
4:55 AM - - - N/A% 29.90 in 10.0 mi East 5.8 mph - N/A   Clear
5:15 AM - - - N/A% 29.90 in 10.0 mi Calm Calm - N/A   Clear
5:35 AM - - - N/A% 29.90 in 10.0 mi Calm Calm - N/A   Clear
5:55 AM - - - N/A% 29.90 in 10.0 mi East 4.6 mph - N/A   Clear
6:15 AM - - - N/A% 29.91 in 10.0 mi Calm Calm - N/A   Clear
6:35 AM - - - N/A% 29.91 in 10.0 mi Calm Calm - N/A   Clear
6:55 AM - - - N/A% 29.91 in 10.0 mi Calm Calm - N/A   Clear
7:15 AM - - - N/A% 29.92 in 10.0 mi Calm Calm - N/A   Clear
7:35 AM - - - N/A% 29.92 in 10.0 mi Calm Calm - N/A   Clear
7:55 AM - - - N/A% 29.92 in 10.0 mi Calm Calm - N/A   Clear
8:15 AM - - - N/A% 29.93 in 10.0 mi Calm Calm - N/A   Clear
8:35 AM - - - N/A% 29.93 in 10.0 mi Calm Calm - N/A   Clear
8:55 AM - - - N/A% 29.93 in 10.0 mi Calm Calm - N/A   Clear
9:15 AM - - - N/A% 29.93 in 10.0 mi Calm Calm - N/A   Clear
9:35 AM - - - N/A% - 10.0 mi North - - N/A   Clear
10:15 AM 86.0 °F - 51.8 °F 31% 29.94 in 10.0 mi SSW 3.5 mph - N/A   Clear
10:35 AM 84.2 °F 82.8 °F 53.6 °F 35% 29.94 in 10.0 mi Calm Calm - N/A   Clear
10:55 AM 86.0 °F 84.2 °F 53.6 °F 33% 29.94 in 10.0 mi Calm Calm - N/A   Clear
11:15 AM 87.8 °F 85.7 °F 53.6 °F 31% 29.94 in 10.0 mi Calm Calm - N/A   Clear
11:35 AM 87.8 °F 85.7 °F 53.6 °F 31% 29.94 in 10.0 mi Calm Calm - N/A   Clear
11:55 AM 89.6 °F - 51.8 °F 27% 29.93 in 10.0 mi Variable 3.5 mph - N/A   Clear
12:15 PM 89.6 °F 87.3 °F 53.6 °F 29% 29.93 in 10.0 mi WSW 3.5 mph - N/A   Clear
12:35 PM 89.6 °F - 51.8 °F 27% 29.92 in 9.0 mi Calm Calm - N/A   Clear
12:55 PM 91.4 °F - 50.0 °F 24% 29.92 in 10.0 mi Variable 5.8 mph - N/A   Clear
1:15 PM 93.2 °F - 44.6 °F 19% 29.91 in 10.0 mi WSW 6.9 mph - N/A   Clear
1:35 PM 93.2 °F - 42.8 °F 17% 29.91 in 10.0 mi Variable 5.8 mph - N/A   Clear
1:55 PM 93.2 °F - 42.8 °F 17% 29.91 in 10.0 mi Variable 5.8 mph - N/A   Clear
2:15 PM 93.2 °F - 42.8 °F 17% 29.90 in 10.0 mi West 3.5 mph - N/A   Clear
2:35 PM 95.0 °F - 42.8 °F 16% 29.90 in 10.0 mi West 6.9 mph - N/A   Clear
2:55 PM 93.2 °F - 42.8 °F 17% 29.90 in 10.0 mi SW 9.2 mph - N/A   Clear
3:15 PM 93.2 °F - 42.8 °F 17% 29.89 in 10.0 mi West 6.9 mph - N/A   Clear
3:35 PM 93.2 °F - 41.0 °F 16% 29.89 in 10.0 mi West 3.5 mph 11.5 mph N/A   Clear
3:55 PM 93.2 °F - 44.6 °F 19% 29.89 in 10.0 mi West 8.1 mph - N/A   Clear
4:15 PM 93.2 °F - 42.8 °F 17% 29.88 in 10.0 mi WSW 3.5 mph - N/A   Clear
4:35 PM 93.2 °F - 48.2 °F 21% 29.88 in 10.0 mi Calm Calm - N/A   Clear
4:55 PM 91.4 °F - 46.4 °F 21% 29.88 in 10.0 mi West 5.8 mph - N/A   Clear
5:15 PM 93.2 °F - 44.6 °F 19% 29.88 in 10.0 mi West 5.8 mph - N/A   Clear
5:35 PM 91.4 °F - 44.6 °F 20% 29.87 in 10.0 mi Calm Calm - N/A   Clear
5:55 PM 91.4 °F - 44.6 °F 20% 29.88 in 10.0 mi Calm Calm - N/A   Clear
6:15 PM 91.4 °F - 42.8 °F 18% 29.87 in 10.0 mi Calm Calm - N/A   Clear
6:35 PM 89.6 °F - 44.6 °F 21% 29.88 in 10.0 mi Calm Calm - N/A   Clear
6:55 PM 87.8 °F - 42.8 °F 21% 29.88 in 10.0 mi Calm Calm - N/A   Clear
7:15 PM 86.0 °F - 42.8 °F 22% 29.88 in 10.0 mi Calm Calm - N/A   Clear
7:35 PM 84.2 °F - 44.6 °F 25% 29.88 in 10.0 mi Calm Calm - N/A   Clear
7:55 PM 80.6 °F - 48.2 °F 32% 29.88 in 10.0 mi Calm Calm - N/A   Clear
8:15 PM 77.0 °F - 48.2 °F 36% 29.89 in 10.0 mi Calm Calm - N/A   Clear
8:35 PM 77.0 °F - 48.2 °F 36% 29.89 in 10.0 mi Calm Calm - N/A   Clear
8:55 PM 73.4 °F - 46.4 °F 38% 29.90 in 10.0 mi Calm Calm - N/A   Clear
9:15 PM 73.4 °F - 48.2 °F 41% 29.91 in 10.0 mi Calm Calm - N/A   Clear
9:35 PM 73.4 °F - 48.2 °F 41% 29.91 in 10.0 mi Calm Calm - N/A   Clear
9:55 PM 77.0 °F - 50.0 °F 39% 29.91 in 10.0 mi Calm Calm - N/A   Clear
10:15 PM 77.0 °F - 50.0 °F 39% 29.92 in 10.0 mi Calm Calm - N/A   Clear
10:35 PM 75.2 °F - 50.0 °F 41% 29.91 in 10.0 mi Calm Calm - N/A   Scattered Clouds
10:55 PM 78.8 °F - 50.0 °F 36% 29.92 in 10.0 mi Calm Calm - N/A   Partly Cloudy
11:15 PM 78.8 °F - 50.0 °F 36% 29.92 in 10.0 mi Calm Calm - N/A   Clear
11:35 PM 80.6 °F - 50.0 °F 34% 29.92 in 10.0 mi Calm Calm - N/A   Clear
11:55 PM 78.8 °F - 50.0 °F 36% 29.92 in 10.0 mi Calm Calm - N/A   Clear